Weather History for Columbus, OH

Change the Weather History Date:

Monday, March 31, 2014

  Actual Average Record
Temperature  
Mean Temperature 48 °F 48 °F  
Max Temperature 65 °F 58 °F 83 °F (1998)
Min Temperature 31 °F 38 °F 9 °F (1923)
Degree Days  
Heating Degree Days 17 18  
Month to date heating degree days 837 716  
Since 1 July heating degree days 5221 4711  
Cooling Degree Days 0 0  
Month to date cooling degree days 0 0  
Year to date cooling degree days 0 0  
Moisture  
Dew Point 31 °F    
Average Humidity 60    
Maximum Humidity 92    
Minimum Humidity 27    
Precipitation  
Precipitation 0.00 in 0.12 in 0.68 in (1899)
Month to date precipitation 2.59 3.02  
Year to date precipitation 7.38 8.00  
Snow  
Snow 0.00 in 0.10 in 4.00 in (1987)
Month to date snowfall 4.5 4.2  
Since 1 July snowfall 55.5 25.6  
Snow Depth 0.00 in    
Sea Level Pressure  
Sea Level Pressure 30.16 in    
Wind  
Wind Speed 4 mph (SE)    
Max Wind Speed 9 mph    
Max Gust Speed 13 mph    
Visibility 10 miles    
Events      
T = Trace of Precipitation, MM = Missing Value Source: NWS Daily Summary

Daily Weather History Graph

Daily Weather History Graph

Search for Another Location

Airport:

Trip Planner

Search our weather history database for the weather conditions in past years. The results will help you decide how hot, cold, wet, or windy it might be!

Date:

Astronomy

Mar. 31, 2014 Rise Set
Actual Time 7:17 AM EDT 7:54 PM EDT
Civil Twilight 6:49 AM EDT 8:22 PM EDT
Nautical Twilight 6:17 AM EDT 8:54 PM EDT
Astronomical Twilight 5:44 AM EDT 9:27 PM EDT
Moon 7:39 AM EDT (3/31) 9:12 PM EDT (3/31)
Length of Visible Light 13h 32m
Length of Day
12h 37m
New Moon, 1% of the Moon is Illuminated
Mar 31
New Moon
Apr 7
First Quarter
Apr 15
Full
Apr 22
Last Quarter
Apr 29
New

Hourly Weather History & Observations

Time (EDT) Temp. Windchill Dew Point Humidity Pressure Visibility Wind Dir Wind Speed Gust Speed Precip Events Conditions
12:51 AM 35.1 °F - 30.9 °F 85% 30.19 in 10.0 mi Calm Calm - N/A   Clear
1:51 AM 34.0 °F - 30.9 °F 89% 30.18 in 10.0 mi Calm Calm - N/A   Clear
2:51 AM 33.1 °F - 30.0 °F 89% 30.17 in 10.0 mi Calm Calm - N/A   Clear
3:51 AM 30.9 °F 27.5 °F 28.9 °F 92% 30.17 in 10.0 mi ENE 3.5 mph - N/A   Clear
4:51 AM 32.0 °F - 30.0 °F 92% 30.16 in 10.0 mi Calm Calm - N/A   Clear
5:51 AM 32.0 °F - 28.9 °F 88% 30.17 in 10.0 mi Calm Calm - N/A   Clear
6:51 AM 32.0 °F - 28.0 °F 85% 30.19 in 10.0 mi Calm Calm - N/A   Partly Cloudy
7:51 AM 32.0 °F - 28.9 °F 88% 30.22 in 7.0 mi Calm Calm - N/A   Partly Cloudy
8:51 AM 36.0 °F 33.3 °F 30.9 °F 82% 30.24 in 10.0 mi SSE 3.5 mph - N/A   Partly Cloudy
9:51 AM 42.1 °F - 32.0 °F 67% 30.25 in 9.0 mi Calm Calm - N/A   Partly Cloudy
10:51 AM 48.9 °F - 33.1 °F 54% 30.24 in 10.0 mi SE 4.6 mph - N/A   Scattered Clouds
11:51 AM 52.0 °F - 32.0 °F 47% 30.24 in 10.0 mi SSE 5.8 mph - N/A   Scattered Clouds
12:51 PM 55.0 °F - 30.9 °F 40% 30.22 in 10.0 mi Calm Calm - N/A   Scattered Clouds
1:51 PM 57.9 °F - 34.0 °F 41% 30.20 in 10.0 mi South 8.1 mph - N/A   Scattered Clouds
2:51 PM 61.0 °F - 33.1 °F 35% 30.17 in 10.0 mi SSE 8.1 mph - N/A   Mostly Cloudy
3:51 PM 62.1 °F - 30.9 °F 31% 30.15 in 10.0 mi South 3.5 mph - N/A   Mostly Cloudy
4:51 PM 63.0 °F - 30.9 °F 30% 30.13 in 10.0 mi SE 6.9 mph - N/A   Mostly Cloudy
5:51 PM 64.0 °F - 30.9 °F 29% 30.11 in 10.0 mi SE 3.5 mph - N/A   Mostly Cloudy
6:51 PM 63.0 °F - 28.9 °F 28% 30.09 in 10.0 mi SE 6.9 mph - N/A   Mostly Cloudy
7:51 PM 60.1 °F - 30.0 °F 32% 30.07 in 10.0 mi East 4.6 mph - N/A   Mostly Cloudy
8:51 PM 55.9 °F - 30.9 °F 39% 30.07 in 10.0 mi ESE 5.8 mph - N/A   Mostly Cloudy
9:51 PM 55.0 °F - 30.0 °F 38% 30.07 in 10.0 mi ESE 6.9 mph - N/A   Scattered Clouds
10:51 PM 54.0 °F - 28.0 °F 37% 30.06 in 10.0 mi ESE 5.8 mph - N/A   Partly Cloudy
11:51 PM 53.1 °F - 28.0 °F 38% 30.03 in 10.0 mi ESE 6.9 mph - N/A   Partly Cloudy